Change the Weather History Date:

Tuesday, March 5, 2013

  Actual Average Record
Temperature  
Mean Temperature 62 °F -  
Max Temperature 68 °F 63 °F 69 °F (1998)
Min Temperature 55 °F 42 °F 28 °F (2005)
Degree Days  
Heating Degree Days 4    
Growing Degree Days 12 (Base 50)    
Moisture  
Dew Point 53 °F    
Average Humidity 75    
Maximum Humidity 94    
Minimum Humidity 34    
Precipitation  
Precipitation 0.02 in 0.05 in - ()
Sea Level Pressure  
Sea Level Pressure 29.49 in    
Wind  
Wind Speed 11 mph ()    
Max Wind Speed 17 mph    
Max Gust Speed 25 mph    
Visibility 5.6 miles    
Events Rain    
Averages and records for this station are not official NWS values.
T = Trace of Precipitation, MM = Missing Value Source: Averaged Metar Reports

Daily Weather History Graph

Daily Weather History Graph

Search for Another Location

Airport or City:

Trip Planner

Search our weather history database for the weather conditions in past years. The results will help you decide how hot, cold, wet, or windy it might be!

Date:

Astronomy

Mar. 05, 2013 Rise Set
Actual Time 7:16 AM CET 6:45 PM CET
Civil Twilight 6:49 AM CET 7:12 PM CET
Nautical Twilight 6:18 AM CET 7:43 PM CET
Astronomical Twilight 5:46 AM CET 8:14 PM CET
Moon 2:11 AM CET (3/5) 12:10 PM CET (3/5)
Length of Visible Light 12h 23m
Length of Day
11h 29m
Last Quarter, 44% of the Moon is Illuminated
Mar 5
Last Quarter
Mar 11
New
Mar 19
First Quarter
Mar 27
Full
Apr 3
Last Quarter

Hourly Weather History & Observations

Time (CET) Temp. Dew Point Humidity Pressure Visibility Wind Dir Wind Speed Gust Speed Precip Events Conditions
12:00 AM 57.2 °F 53.6 °F 88% 29.68 in 5.6 mi NE 13.8 mph - N/A   Partly Cloudy
12:30 AM 57.2 °F 53.6 °F 88% 29.65 in 5.6 mi NE 13.8 mph - N/A   Partly Cloudy
1:00 AM 55 °F 50 °F 79% 29.67 in 6 mi NE 9.2 mph - - Rain Light Rain
1:00 AM 57.2 °F 53.6 °F 88% 29.65 in 5.6 mi NE 6.9 mph - N/A Rain Light Rain
1:30 AM 57.2 °F 53.6 °F 88% 29.65 in 5.6 mi ESE 13.8 mph - N/A Rain Light Rain
2:00 AM 59.0 °F 51.8 °F 77% 29.62 in 3.7 mi SE 17.3 mph - N/A   Partly Cloudy
3:00 AM 59.0 °F 53.6 °F 82% 29.62 in 3.7 mi SE 15.0 mph - N/A   Partly Cloudy
3:30 AM 59.0 °F 53.6 °F 82% 29.62 in 5.6 mi SE 12.7 mph - N/A   Partly Cloudy
4:00 AM 59.0 °F 53.6 °F 82% 29.59 in 5.6 mi ESE 13.8 mph - N/A   Light Drizzle
4:30 AM 59.0 °F 53.6 °F 82% 29.59 in 5.6 mi SE 12.7 mph - N/A   Partly Cloudy
5:00 AM 59.0 °F 53.6 °F 82% 29.59 in 5.6 mi ESE 11.5 mph - N/A   Partly Cloudy
5:30 AM 59.0 °F 53.6 °F 82% 29.56 in 5.6 mi ESE 11.5 mph - N/A   Partly Cloudy
6:00 AM 59.0 °F 53.6 °F 82% 29.56 in 5.6 mi ESE 10.4 mph - N/A   Partly Cloudy
6:30 AM 60.8 °F 51.8 °F 72% 29.56 in 5.6 mi SE 15.0 mph - N/A   Partly Cloudy
7:00 AM 59 °F 49 °F 60% 29.57 in 6 mi ESE 11.5 mph - -   Mist
7:00 AM 60.8 °F 51.8 °F 72% 29.56 in 5.6 mi SE 16.1 mph - N/A   Partly Cloudy
8:00 AM 60.8 °F 51.8 °F 72% 29.56 in 6.2 mi SE 13.8 mph 25.3 mph N/A   Partly Cloudy
8:30 AM 60.8 °F 51.8 °F 72% 29.56 in 6.2 mi SE 12.7 mph - N/A   Partly Cloudy
9:00 AM 62.6 °F 51.8 °F 68% 29.56 in 6.2 mi SE 13.8 mph - N/A   Partly Cloudy
9:30 AM 62.6 °F 51.8 °F 68% 29.56 in 6.2 mi SE 12.7 mph - N/A   Partly Cloudy
10:00 AM 64.4 °F 51.8 °F 64% 29.53 in - SSE 12.7 mph - N/A   Clear
10:30 AM 66.2 °F 51.8 °F 60% 29.53 in - SE 10.4 mph - N/A   Clear
11:00 AM 66.2 °F 51.8 °F 60% 29.53 in - SE 11.5 mph - N/A   Clear
11:30 AM 66.2 °F 51.8 °F 60% 29.53 in - SE 11.5 mph - N/A   Clear
12:00 PM 68.0 °F 51.8 °F 56% 29.53 in - SE 11.5 mph - N/A   Clear
12:30 PM 68.0 °F 51.8 °F 56% 29.53 in 6.2 mi ESE 10.4 mph - N/A   Scattered Clouds
1:00 PM 68 °F 46 °F 34% 29.51 in 16 mi ESE 9.2 mph - -   Overcast
1:00 PM 68.0 °F 48.2 °F 49% 29.50 in 6.2 mi ESE 9.2 mph - N/A   Scattered Clouds
2:00 PM 68.0 °F 51.8 °F 56% 29.47 in 6.2 mi SE 10.4 mph - N/A   Scattered Clouds
2:30 PM 66.2 °F 50.0 °F 56% 29.44 in 6.2 mi SE 10.4 mph - N/A   Scattered Clouds
3:00 PM 66.2 °F 50.0 °F 56% 29.44 in 6.2 mi ESE 11.5 mph - N/A   Mostly Cloudy
3:30 PM 64.4 °F 50.0 °F 59% 29.44 in 5.6 mi SE 8.1 mph - N/A   Mostly Cloudy
4:00 PM 62.6 °F 53.6 °F 72% 29.42 in 5.6 mi SE 8.1 mph - N/A   Light Drizzle
4:30 PM 60.8 °F 55.4 °F 82% 29.42 in 5.0 mi East 3.5 mph - N/A   Light Drizzle
5:00 PM 60.8 °F 55.4 °F 82% 29.39 in 4.3 mi East 8.1 mph - N/A   Light Drizzle
5:30 PM 59.0 °F 55.4 °F 88% 29.39 in 4.3 mi ENE 8.1 mph - N/A   Mostly Cloudy
6:00 PM 59.0 °F 55.4 °F 88% 29.39 in 4.3 mi ENE 6.9 mph - N/A Rain Light Rain
6:30 PM 59.0 °F 55.4 °F 88% 29.39 in 4.3 mi NE 8.1 mph - N/A   Light Drizzle
7:00 PM 57 °F 53 °F 80% 29.38 in 4 mi NE 8.1 mph - -   Mist
7:00 PM 59.0 °F 55.4 °F 88% 29.36 in 4.3 mi NE 10.4 mph - N/A   Mostly Cloudy
7:30 PM 59.0 °F 55.4 °F 88% 29.36 in 4.3 mi ENE 12.7 mph - N/A   Mostly Cloudy
8:00 PM 59.0 °F 55.4 °F 88% 29.36 in 5.6 mi ENE 13.8 mph - N/A   Mostly Cloudy
8:30 PM 59.0 °F 55.4 °F 88% 29.36 in 5.0 mi ENE 15.0 mph - N/A Rain Light Rain
9:00 PM 57.2 °F 55.4 °F 94% 29.36 in 5.0 mi ENE 15.0 mph - N/A Rain Light Rain
9:30 PM 59.0 °F 55.4 °F 88% 29.33 in 5.0 mi ENE 13.8 mph - N/A   Mostly Cloudy
10:00 PM 59.0 °F 55.4 °F 88% 29.36 in 5.6 mi East 9.2 mph - N/A   Mostly Cloudy
10:30 PM 59.0 °F 55.4 °F 88% 29.36 in 5.6 mi ESE 10.4 mph - N/A Rain Light Rain
11:00 PM 59.0 °F 55.4 °F 88% 29.33 in 5.0 mi SSE 6.9 mph - N/A   Mostly Cloudy
11:30 PM 59.0 °F 53.6 °F 82% 29.33 in 5.0 mi SSE 4.6 mph - N/A   Mostly Cloudy